map of BUS home
BUS - Airport
Location
City:  Batumi, Ajaria, Georgia
Name:Batumi International Airport
ICAO:UGSB
IATA:BUS

Details
Type:Airport (Aerodrome, Airfield)
Use:International (customs port of entry)
Latitude:4136'37"N (41.610278)
Longitude:4135'59"E (41.599694)
Datum:WGS 1984
Elevation:105 ft (32 m)
Variation:6.56E (WMM2015 magnetic declination)
0.08 annual change
Runways:1
Longest:7325 × 150 ft (2233 × 45.5 m), paved

Time
Time Zone:UTC+3 (DST+4)

Weather
METAR:UGSB 250130Z 17004KT 9999 FEW120 05/04 Q1008 R13/CLRD70 NOSIG
TAF:UGSB 241100Z 2412/2512 32007KT 9999 SCT013 BKN035 TX12/2412Z TN06/2500Z
BECMG 2416/2419 13012KT
BECMG 2506/2508 34007KT

Related Locations
Nearby:
Farthest:GMR: 11137 mi / 17924 km
Mangareva [Totegegie], Gambier Islands, PF

Find:

   beyond  
but within

Other Information
Maps:
NOTAMs:
Links:
Sources:

  
flag of Georgia
flag of Ajaria
  

Sectional Chart

Flight Planning
at skyvector.com

Satellite Image

Google Maps Satellite view

 

Copyright © 2004-2018 Karl L. Swartz. All rights reserved.
The Great Circle Mapper name and logo are trademarks of the Great Circle Mapper.
All other trademarks mentioned herein belong to their respective owners.
Please see credits for attibutions and further copyright information.

  Follow gcmap on Facebook Follow gcmap on Twitter Follow gcmap on Google+ GCmap on LinkedIn

hCard Microformat

Geo Microformat